Location: Seattle
(47.6064°N, 122.3308°W)
Time: 15:57:59
(UTC-08:00)

S-56A Canister/Altair - Pass Details

Date: 11 October 2022
Orbit: 638 x 2494 km, 38.9° (Epoch: 03 December)

Event Time Altitude Azimuth Distance (km) Brightness Sun altitude
Exits shadow 06:10:37 13° 246° (WSW) 3,306 10.2 -12.9°
Maximum altitude 06:13:11 15° 228° (SW) 2,965 10.1 -12.5°
Drops below altitude 10° 06:17:12 10° 195° (SSW) 3,010 10.4 -11.8°
Sets 06:20:50 0° 172° (S) 3,653 11.1 -11.2°
